When you browse on this site, cookies collect data to enhance your experience and personalize the content and advertising you see.
Visit our Privacy Policy to learn more. By continuing to use the site, you agree to this use of cookies and data.

Hourly Weather Salnikovschina

Today, 8 July, Wednesday

Time Temperature Precipitation Wind Pressure Humidity
00:00 +12°C° 2.7 mm 3 mps 735 mmHg 91%
01:00 +12°C° 2.7 mm 3 mps 735 mmHg 94%
02:00 +12°C° 0 mm 3 mps 735 mmHg 99%
03:00 +12°C° 3.7 mm 3 mps 735 mmHg 99%
04:00 +12°C° 3.7 mm 3 mps 735 mmHg 98%
05:00 +12°C° 3.7 mm 3 mps 735 mmHg 98%
06:00 +12°C° 0.7 mm 3 mps 735 mmHg 97%
07:00 +12°C° 0.7 mm 3 mps 735 mmHg 96%
08:00 +12°C° 0 mm 3 mps 735 mmHg 96%
09:00 +12°C° 0.3 mm 3 mps 736 mmHg 96%
10:00 +12°C° 0.3 mm 3 mps 736 mmHg 95%
11:00 +12°C° 0.3 mm 3 mps 737 mmHg 95%
12:00 +12°C° 0.8 mm 3 mps 737 mmHg 95%
13:00 +13°C° 0.8 mm 2 mps 737 mmHg 95%
14:00 +13°C° 0.8 mm 2 mps 737 mmHg 95%
15:00 +14°C° 0 mm 1 mps 737 mmHg 89%
16:00 +15°C° 0 mm 1 mps 737 mmHg 83%
17:00 +16°C° 0 mm 1 mps 738 mmHg 78%
18:00 +15°C° 0 mm 1 mps 738 mmHg 82%
19:00 +13°C° 0 mm 0 mps 738 mmHg 86%
20:00 +12°C° 0 mm 0 mps 738 mmHg 90%
21:00 +12°C° 0 mm 0 mps 738 mmHg 92%
22:00 +12°C° 0 mm 1 mps 737 mmHg 94%
23:00 +11°C° 0 mm 1 mps 737 mmHg 96%

Tomorrow, 9 July, Thursday

Time Temperature Precipitation Wind Pressure Humidity
00:00 +11°C° 0 mm 1 mps 738 mmHg 96%
01:00 +11°C° 0 mm 1 mps 738 mmHg 96%
02:00 +11°C° 0 mm 1 mps 738 mmHg 97%
03:00 +11°C° 0 mm 1 mps 738 mmHg 95%
04:00 +12°C° 0 mm 1 mps 738 mmHg 92%
05:00 +12°C° 0 mm 1 mps 738 mmHg 90%
06:00 +14°C° 0.2 mm 1 mps 738 mmHg 87%
07:00 +15°C° 0.2 mm 2 mps 738 mmHg 84%
08:00 +16°C° 0.2 mm 2 mps 738 mmHg 80%
09:00 +17°C° 0.5 mm 3 mps 738 mmHg 77%
10:00 +17°C° 0.5 mm 3 mps 738 mmHg 73%
11:00 +18°C° 0.5 mm 3 mps 738 mmHg 70%
12:00 +18°C° 0.6 mm 3 mps 738 mmHg 71%
13:00 +18°C° 0.6 mm 3 mps 738 mmHg 72%
14:00 +18°C° 0.6 mm 3 mps 738 mmHg 73%
15:00 +18°C° 0.2 mm 3 mps 739 mmHg 70%
16:00 +18°C° 0.2 mm 3 mps 739 mmHg 67%
17:00 +18°C° 0.2 mm 3 mps 739 mmHg 64%
18:00 +17°C° 0.1 mm 3 mps 739 mmHg 70%
19:00 +15°C° 0.1 mm 2 mps 739 mmHg 77%
20:00 +14°C° 0.1 mm 1 mps 739 mmHg 83%
21:00 +13°C° 0 mm 1 mps 740 mmHg 85%
22:00 +12°C° 0 mm 2 mps 740 mmHg 87%
23:00 +10°C° 0 mm 2 mps 741 mmHg 89%

Day after tomorrow, 10 July, Friday

Time Temperature Precipitation Wind Pressure Humidity
00:00 +9°C° 0 mm 2 mps 741 mmHg 90%
01:00 +9°C° 0 mm 2 mps 741 mmHg 91%
02:00 +9°C° 0 mm 2 mps 741 mmHg 93%
03:00 +9°C° 0 mm 2 mps 742 mmHg 91%
04:00 +10°C° 0 mm 2 mps 742 mmHg 89%
05:00 +10°C° 0 mm 2 mps 742 mmHg 88%
06:00 +13°C° 0 mm 2 mps 742 mmHg 81%
07:00 +15°C° 0 mm 2 mps 743 mmHg 73%
08:00 +17°C° 0 mm 2 mps 743 mmHg 66%
09:00 +18°C° 0.1 mm 3 mps 743 mmHg 63%
10:00 +19°C° 0.1 mm 3 mps 743 mmHg 60%
11:00 +20°C° 0.1 mm 3 mps 743 mmHg 57%
12:00 +20°C° 0.1 mm 3 mps 743 mmHg 53%
13:00 +21°C° 0.1 mm 3 mps 742 mmHg 49%
14:00 +22°C° 0.1 mm 4 mps 742 mmHg 45%
15:00 +20°C° 0.1 mm 3 mps 742 mmHg 55%
16:00 +18°C° 0.1 mm 3 mps 742 mmHg 65%
17:00 +17°C° 0.1 mm 3 mps 742 mmHg 75%
18:00 +16°C° 0.1 mm 3 mps 742 mmHg 81%
19:00 +14°C° 0.1 mm 3 mps 742 mmHg 86%
20:00 +13°C° 0.1 mm 3 mps 742 mmHg 91%
21:00 +13°C° 0.2 mm 3 mps 742 mmHg 93%
22:00 +13°C° 0.2 mm 3 mps 742 mmHg 95%
23:00 +13°C° 0.2 mm 3 mps 742 mmHg 97%

11 July, Saturday

Time Temperature Precipitation Wind Pressure Humidity
00:00 +14°C° 0.2 mm 3 mps 741 mmHg 97%
01:00 +14°C° 0.2 mm 3 mps 741 mmHg 97%
02:00 +16°C° 0.2 mm 3 mps 741 mmHg 98%
03:00 +16°C° 0.2 mm 3 mps 741 mmHg 98%
04:00 +16°C° 0.2 mm 3 mps 741 mmHg 98%
05:00 +16°C° 0.2 mm 3 mps 740 mmHg 98%
06:00 +17°C° 0.1 mm 4 mps 740 mmHg 97%
07:00 +17°C° 0.1 mm 4 mps 740 mmHg 96%
08:00 +18°C° 0.1 mm 4 mps 740 mmHg 95%
09:00 +19°C° 0 mm 4 mps 740 mmHg 90%
10:00 +20°C° 0 mm 4 mps 740 mmHg 86%
11:00 +21°C° 0 mm 4 mps 740 mmHg 82%
12:00 +21°C° 0.6 mm 4 mps 740 mmHg 85%
13:00 +21°C° 0.6 mm 4 mps 740 mmHg 88%
14:00 +21°C° 0.6 mm 4 mps 739 mmHg 91%
15:00 +21°C° 0.9 mm 4 mps 740 mmHg 91%
16:00 +22°C° 0.9 mm 4 mps 740 mmHg 91%
17:00 +22°C° 0.9 mm 4 mps 740 mmHg 91%
18:00 +21°C° 0.3 mm 4 mps 740 mmHg 93%
19:00 +20°C° 0.3 mm 3 mps 740 mmHg 94%
20:00 +19°C° 0.3 mm 2 mps 740 mmHg 95%
21:00 +19°C° 0 mm 2 mps 740 mmHg 96%
22:00 +18°C° 0 mm 2 mps 741 mmHg 96%
23:00 +18°C° 0 mm 1 mps 741 mmHg 97%

12 July, Sunday

Time Temperature Precipitation Wind Pressure Humidity
00:00 +18°C° 0 mm 1 mps 741 mmHg 97%
01:00 +18°C° 0 mm 1 mps 741 mmHg 96%
02:00 +18°C° 0 mm 1 mps 741 mmHg 96%
03:00 +16°C° 0 mm 1 mps 741 mmHg 96%
04:00 +16°C° 0 mm 1 mps 741 mmHg 96%
05:00 +16°C° 0 mm 1 mps 741 mmHg 95%
06:00 +15°C° 0.1 mm 1 mps 742 mmHg 95%
07:00 +15°C° 0.1 mm 1 mps 742 mmHg 94%
08:00 +14°C° 0.1 mm 2 mps 742 mmHg 94%
09:00 +14°C° 0.9 mm 2 mps 742 mmHg 95%
10:00 +14°C° 0.9 mm 2 mps 742 mmHg 96%
11:00 +13°C° 0.9 mm 2 mps 742 mmHg 97%
12:00 +13°C° 0.3 mm 2 mps 742 mmHg 96%
13:00 +13°C° 0.3 mm 2 mps 742 mmHg 95%
14:00 +11°C° 0.3 mm 3 mps 742 mmHg 95%
15:00 +12°C° 0.3 mm 2 mps 742 mmHg 95%
16:00 +12°C° 0.3 mm 2 mps 742 mmHg 95%
17:00 +11°C° 0.3 mm 1 mps 742 mmHg 95%
18:00 +11°C° 0.1 mm 1 mps 742 mmHg 95%
19:00 +11°C° 0.1 mm 1 mps 742 mmHg 94%
20:00 +11°C° 0.1 mm 1 mps 742 mmHg 94%
21:00 +10°C° 0 mm 1 mps 742 mmHg 93%
22:00 +10°C° 0 mm 1 mps 742 mmHg 92%
23:00 +10°C° 0 mm 1 mps 742 mmHg 90%

13 July, Monday

Time Temperature Precipitation Wind Pressure Humidity
00:00 +9°C° 0 mm 1 mps 742 mmHg 91%
01:00 +9°C° 0 mm 1 mps 742 mmHg 92%
02:00 +9°C° 0 mm 1 mps 742 mmHg 93%
03:00 +9°C° 0 mm 1 mps 742 mmHg 94%
04:00 +10°C° 0 mm 1 mps 742 mmHg 94%
05:00 +10°C° 0 mm 1 mps 742 mmHg 94%
06:00 +13°C° 0 mm 1 mps 742 mmHg 88%
07:00 +15°C° 0 mm 1 mps 742 mmHg 81%
08:00 +18°C° 0 mm 1 mps 741 mmHg 74%
09:00 +19°C° 0 mm 1 mps 741 mmHg 66%
10:00 +21°C° 0 mm 1 mps 741 mmHg 58%
11:00 +21°C° 0 mm 2 mps 741 mmHg 50%
12:00 +23°C° 0 mm 2 mps 741 mmHg 49%
13:00 +23°C° 0 mm 2 mps 741 mmHg 48%
14:00 +23°C° 0 mm 1 mps 740 mmHg 47%
15:00 +23°C° 0.1 mm 2 mps 740 mmHg 51%
16:00 +21°C° 0.1 mm 2 mps 740 mmHg 56%
17:00 +21°C° 0.1 mm 2 mps 740 mmHg 60%
18:00 +19°C° 0.1 mm 2 mps 740 mmHg 69%
19:00 +17°C° 0.1 mm 2 mps 740 mmHg 77%
20:00 +15°C° 0.1 mm 1 mps 740 mmHg 86%
21:00 +15°C° 0 mm 1 mps 740 mmHg 88%
22:00 +14°C° 0 mm 1 mps 740 mmHg 90%
23:00 +13°C° 0 mm 1 mps 740 mmHg 93%
Show more